Home > Weather > Fort Lauderdale > Past weeks

Flag for USA Past Weather in Fort Lauderdale, Florida, USA — Yesterday and Last 2 Weeks

Now
80 °F

Passing clouds.


Feels Like: 85 °F
Forecast: 81 / 89 °F
Wind: 5 mph from North

Location: Fort Lauderdale / Hollywood International Airport

Current Time: Aug 24, 2016 at 8:22:20 AM

Latest Report: Aug 24, 2016 at 7:53 AM


Visibility: 10 mi

Pressure: 30.06 "Hg

Humidity: 81%

Dew Point: 74 °F

Location of Fort LauderdaleLocation

Past Weather in Fort Lauderdale — Graph

°F

Fort Lauderdale Temperature Yesterday

Maximum temperature yesterday: 92 °F (at 1:53 PM)
Minimum temperature yesterday: 82 °F (at 4:53 AM)
Average temperature yesterday: 87 °F

High & Low Weather Summary for the Past Weeks

 TemperatureHumidityPressure
High92 °F (Aug 21, 11:53 AM)97% (Aug 10, 2:53 AM)30.15 "Hg (Aug 10, 2:53 AM)
Low73 °F (Aug 12, 6:55 AM)52% (Aug 21, 11:53 AM)29.92 "Hg (Aug 20, 5:53 PM)
Average84 °F75%30.05 "Hg
* Reported Aug 9 6:53 AM — Aug 24 6:53 AM, Fort Lauderdale, Weather by CustomWeather, © 2016

Note: Actual official high and low records may vary slightly from our data, if they occured in-between our weather recording intervals... More about our weather records

Advertising

Fort Lauderdale Weather History for the Previous 24 Hours

Scroll right to see more
 ConditionsComfort  
Time TempWeatherWind HumidityBarometerVisibility
6:53 AM
Wed, Aug 24
81 °FPassing clouds.10 mph82%30.04 "Hg10 mi
5:53 AM82 °FPartly cloudy.5 mph88%30.03 "Hg10 mi
4:53 AM82 °FThunderstorms. Partly cloudy.6 mph79%30.04 "Hg10 mi
3:53 AM85 °FPartly cloudy.7 mph80%30.04 "Hg10 mi
2:53 AM84 °FPartly cloudy.7 mph80%30.03 "Hg10 mi
1:53 AM84 °FPartly cloudy.7 mph83%30.05 "Hg10 mi
12:53 AM85 °FPassing clouds.12 mph80%30.06 "Hg10 mi
11:53 PM
Tue, Aug 23
85 °FPassing clouds.9 mph75%30.08 "Hg10 mi
10:53 PM85 °FPassing clouds.8 mph77%30.09 "Hg10 mi
9:53 PM85 °FPassing clouds.8 mph75%30.08 "Hg10 mi
8:53 PM85 °FPassing clouds.14 mph75%30.06 "Hg10 mi
7:53 PM86 °FBroken clouds.10 mph77%30.06 "Hg10 mi
6:53 PM86 °FBroken clouds.12 mph72%30.05 "Hg10 mi
5:53 PM87 °FBroken clouds.13 mph69%30.07 "Hg10 mi
4:53 PM90 °FBroken clouds.16 mph61%30.07 "Hg10 mi
3:53 PM91 °FScattered clouds.14 mph66%30.08 "Hg10 mi
2:53 PM92 °FScattered clouds.14 mph60%30.10 "Hg10 mi
1:53 PM92 °FScattered clouds.13 mph62%30.11 "Hg10 mi
12:53 PM91 °FScattered clouds.13 mph61%30.13 "Hg10 mi
11:53 AM91 °FScattered clouds.9 mph64%30.14 "Hg10 mi
10:53 AM91 °FBroken clouds.7 mph66%30.14 "Hg10 mi
9:53 AM89 °FScattered clouds.8 mph65%30.14 "Hg10 mi
8:53 AM87 °FScattered clouds.9 mph72%30.13 "Hg10 mi
Weather by CustomWeather, © 2016

See weather overviewHow to use our weather pages